Tracking 28794 objects as of 19-Apr-2024
HD Live streaming from Space Station
objects crossing your sky now

UFO 1 (USA 98)

Track UFO 1 (USA 98) now!
UFO 1 (USA 98) is classified as:


NORAD ID: 22563
Int'l Code: 1993-015A
Perigee: 36,057.0 km
Apogee: 36,105.8 km
Inclination: 23.9 °
Period: 1,450.8 minutes
Semi major axis: 42452 km
RCS: 8.2516 m2 (large)
Launch date: March 25, 1993
Source: United States (US)
Launch site: AIR FORCE EASTERN TEST RANGE (AFETR)
Your satellite tracking list
Your tracking list is empty




NASA's NSSDC Master Catalog

Two Line Element Set (TLE):
1 22563U 93015A   24110.63821574 -.00000032  00000-0  00000-0 0  9996
2 22563  23.8941  84.7411 0005749 268.6477 274.2602  0.99254240116878
Source of the keplerian elements: AFSPC